ICE580 BIKF-GCTS

Flight info

Callsign ICE580
Flight time N/A
Altitude 37000
Route RIMUM1A RIMUM DCT 61N020W 55N019W 50N018W 45N017W 4000N01630W DCT NAVIX/N0462F370 T16 SNT UN975 ORTIS ORTIS2Z
Aircraft B752/M-SDE2E3FGHIJ3J4J7RWXYZ/LB1D1

Departure

Time 2026-05-08 08:43
Airport Keflavik International Airport (BIKF)

Arrival

Time N/A
Airport Tenerife Sur Airport (GCTS)
Time Latitude Longitude Altitude Speed Heading
2026-05-08 08:12 63.99239 -22.62915 146 ft 0 kts 269°
2026-05-08 08:29 63.99239 -22.62913 147 ft 1 kts 269°
2026-05-08 08:29 63.99239 -22.62880 147 ft 2 kts 269°
2026-05-08 08:30 63.99239 -22.62845 148 ft 2 kts 269°
2026-05-08 08:30 63.99242 -22.62812 148 ft 2 kts 245°
2026-05-08 08:30 63.99261 -22.62762 147 ft 2 kts 207°
2026-05-08 08:31 63.99275 -22.62752 146 ft 2 kts 187°
2026-05-08 08:31 63.99290 -22.62752 146 ft 2 kts 176°
2026-05-08 08:31 63.99303 -22.62752 146 ft 0 kts 180°
2026-05-08 08:31 63.99304 -22.62752 146 ft 0 kts 180°
2026-05-08 08:33 63.99278 -22.62747 146 ft 6 kts 166°
2026-05-08 08:34 63.99237 -22.62694 146 ft 7 kts 152°
2026-05-08 08:34 63.99190 -22.62681 146 ft 6 kts 167°
2026-05-08 08:34 63.99172 -22.62609 146 ft 7 kts 92°
2026-05-08 08:34 63.99172 -22.62442 146 ft 13 kts 89°
2026-05-08 08:35 63.99173 -22.62182 146 ft 18 kts 90°
2026-05-08 08:35 63.99173 -22.61884 149 ft 18 kts 89°
2026-05-08 08:35 63.99173 -22.61619 154 ft 16 kts 90°
2026-05-08 08:35 63.99172 -22.61365 161 ft 17 kts 90°
2026-05-08 08:36 63.99172 -22.61095 169 ft 15 kts 89°
2026-05-08 08:36 63.99160 -22.60971 172 ft 5 kts 137°
2026-05-08 08:36 63.99123 -22.60948 173 ft 7 kts 176°
2026-05-08 08:36 63.99054 -22.60945 173 ft 12 kts 180°
2026-05-08 08:37 63.98953 -22.60947 173 ft 16 kts 180°
2026-05-08 08:37 63.98825 -22.60947 173 ft 20 kts 179°
2026-05-08 08:37 63.98674 -22.60945 173 ft 21 kts 179°
2026-05-08 08:37 63.98528 -22.60946 173 ft 20 kts 180°
2026-05-08 08:38 63.98386 -22.60948 173 ft 19 kts 180°
2026-05-08 08:38 63.98252 -22.60948 173 ft 18 kts 179°
2026-05-08 08:38 63.98123 -22.60946 173 ft 18 kts 179°
2026-05-08 08:38 63.97997 -22.60947 173 ft 19 kts 179°
2026-05-08 08:39 63.97855 -22.60948 173 ft 20 kts 179°
2026-05-08 08:39 63.97715 -22.60947 173 ft 20 kts 180°
2026-05-08 08:39 63.97565 -22.60947 173 ft 22 kts 180°
2026-05-08 08:39 63.97410 -22.60949 173 ft 22 kts 180°
2026-05-08 08:40 63.97260 -22.60949 173 ft 21 kts 179°
2026-05-08 08:40 63.97117 -22.60948 172 ft 20 kts 179°
2026-05-08 08:40 63.96976 -22.60948 172 ft 20 kts 179°
2026-05-08 08:40 63.96839 -22.60948 171 ft 19 kts 180°
2026-05-08 08:41 63.96707 -22.60948 170 ft 16 kts 179°
2026-05-08 08:41 63.96616 -22.60948 170 ft 12 kts 180°
2026-05-08 08:41 63.96537 -22.60947 170 ft 9 kts 179°
2026-05-08 08:41 63.96477 -22.60921 170 ft 8 kts 142°
2026-05-08 08:42 63.96461 -22.60816 170 ft 7 kts 91°
2026-05-08 08:42 63.96461 -22.60688 170 ft 9 kts 89°
2026-05-08 08:42 63.96473 -22.60558 170 ft 6 kts 30°
2026-05-08 08:42 63.96524 -22.60552 170 ft 11 kts 358°
2026-05-08 08:43 63.96751 -22.60551 170 ft 62 kts 360°
2026-05-08 08:43 63.97385 -22.60550 174 ft 119 kts
2026-05-08 08:43 63.98392 -22.60548 282 ft 159 kts 360°
2026-05-08 08:43 63.99501 -22.60548 867 ft 164 kts 359°
2026-05-08 08:44 64.00590 -22.60547 1682 ft 156 kts 359°
2026-05-08 08:44 64.01706 -22.60544 2054 ft 169 kts 359°
2026-05-08 08:44 64.02945 -22.60552 2389 ft 189 kts 359°
2026-05-08 08:44 64.04298 -22.60511 2849 ft 205 kts
2026-05-08 08:45 64.05653 -22.59196 3355 ft 224 kts 40°
2026-05-08 08:45 64.06452 -22.56150 4097 ft 237 kts 73°
2026-05-08 08:45 64.06509 -22.52333 4826 ft 247 kts 88°
2026-05-08 08:45 64.06421 -22.48442 5612 ft 248 kts 87°
2026-05-08 08:46 64.06068 -22.44498 6019 ft 273 kts 112°
2026-05-08 08:46 64.04833 -22.41052 6602 ft 288 kts 143°
2026-05-08 08:46 64.03023 -22.39276 7307 ft 293 kts 169°
2026-05-08 08:46 64.01011 -22.38593 8068 ft 295 kts 170°
2026-05-08 08:47 63.98985 -22.37750 8782 ft 299 kts 168°
2026-05-08 08:47 63.96955 -22.36828 9546 ft 300 kts 168°
2026-05-08 08:47 63.94922 -22.35869 10230 ft 304 kts 167°
2026-05-08 08:47 63.92843 -22.34868 10725 ft 314 kts 168°
2026-05-08 08:48 63.90633 -22.33791 10939 ft 334 kts 168°
2026-05-08 08:48 63.88318 -22.32658 11170 ft 352 kts 168°
2026-05-08 08:48 63.85884 -22.31464 11329 ft 370 kts 168°
2026-05-08 08:48 63.83324 -22.30210 11540 ft 386 kts 168°
2026-05-08 08:49 63.80681 -22.28915 12130 ft 390 kts 168°
2026-05-08 08:49 63.78036 -22.27623 12692 ft 394 kts 168°
2026-05-08 08:49 63.75352 -22.26314 13212 ft 399 kts 168°
2026-05-08 08:49 63.72651 -22.24998 13807 ft 402 kts 168°
2026-05-08 08:50 63.69918 -22.23670 14335 ft 406 kts 168°
2026-05-08 08:50 63.67164 -22.22334 14842 ft 410 kts 168°
2026-05-08 08:50 63.64371 -22.20982 15361 ft 414 kts 168°
2026-05-08 08:50 63.61545 -22.19617 15857 ft 419 kts 168°
2026-05-08 08:51 63.58681 -22.18236 16344 ft 423 kts 168°
2026-05-08 08:51 63.55841 -22.16869 16848 ft 426 kts 168°
2026-05-08 08:51 63.52940 -22.15374 17298 ft 430 kts 163°
2026-05-08 08:51 63.50153 -22.12824 17726 ft 433 kts 153°
2026-05-08 08:52 63.47448 -22.09992 18119 ft 439 kts 154°
2026-05-08 08:52 63.44663 -22.07098 18610 ft 441 kts 154°
2026-05-08 08:52 63.41878 -22.04204 19093 ft 444 kts 154°
2026-05-08 08:52 63.39094 -22.01309 19381 ft 451 kts 154°
2026-05-08 08:53 63.36245 -21.98355 19805 ft 454 kts 154°
2026-05-08 08:53 63.33407 -21.95417 20231 ft 457 kts 153°
2026-05-08 08:53 63.30500 -21.92411 20606 ft 460 kts 153°
2026-05-08 08:53 63.27622 -21.89443 20947 ft 465 kts 153°
2026-05-08 08:54 63.24683 -21.86419 21350 ft 468 kts 153°
2026-05-08 08:54 63.21724 -21.83377 21644 ft 473 kts 153°
2026-05-08 08:54 63.18750 -21.80334 22037 ft 475 kts 153°
2026-05-08 08:54 63.15744 -21.77258 22375 ft 479 kts 153°
2026-05-08 08:55 63.12717 -21.74172 22721 ft 482 kts 153°
2026-05-08 08:55 63.09661 -21.71063 22973 ft 487 kts 153°
2026-05-08 08:55 63.06611 -21.68033 23345 ft 490 kts 155°
2026-05-08 08:55 63.03427 -21.65279 23656 ft 493 kts 156°
2026-05-08 08:56 63.00267 -21.62539 23917 ft 497 kts 156°
2026-05-08 08:56 62.97041 -21.59741 24296 ft 499 kts 156°
2026-05-08 08:56 62.93791 -21.56925 24507 ft 504 kts 156°
2026-05-08 08:56 62.90554 -21.54124 24917 ft 504 kts 156°
2026-05-08 08:57 62.87268 -21.51285 25084 ft 510 kts 156°
2026-05-08 08:57 62.84002 -21.48472 25512 ft 510 kts 156°
2026-05-08 08:57 62.80710 -21.45641 25740 ft 515 kts 155°
2026-05-08 08:57 62.77380 -21.42786 26072 ft 518 kts 155°
2026-05-08 08:58 62.74020 -21.39912 26430 ft 520 kts 155°
2026-05-08 08:58 62.70677 -21.37058 26653 ft 525 kts 156°
2026-05-08 08:58 62.67281 -21.34165 27008 ft 526 kts 156°
2026-05-08 08:58 62.63867 -21.31264 27178 ft 532 kts 157°
2026-05-08 08:59 62.60443 -21.28366 27587 ft 531 kts 156°
2026-05-08 08:59 62.56968 -21.25427 27710 ft 538 kts 156°
2026-05-08 08:59 62.53524 -21.22527 28155 ft 537 kts 156°
2026-05-08 08:59 62.50050 -21.19603 28264 ft 543 kts 156°
2026-05-08 09:00 62.46538 -21.16657 28612 ft 544 kts 156°
2026-05-08 09:00 62.43029 -21.13721 28813 ft 548 kts 156°
2026-05-08 09:00 62.39460 -21.10743 29164 ft 548 kts 156°
2026-05-08 09:00 62.35931 -21.07803 29243 ft 554 kts 156°
2026-05-08 09:01 62.32357 -21.04837 29590 ft 554 kts 156°
2026-05-08 09:01 62.28765 -21.01866 29789 ft 558 kts 156°
2026-05-08 09:01 62.25149 -20.98874 29999 ft 561 kts 156°
2026-05-08 09:01 62.21634 -20.95982 30337 ft 561 kts 156°
2026-05-08 09:02 62.17987 -20.92984 30480 ft 565 kts 156°
2026-05-08 09:02 62.14346 -20.89997 30721 ft 567 kts 156°
2026-05-08 09:02 62.10690 -20.87008 31108 ft 565 kts 156°
2026-05-08 09:02 62.07052 -20.84043 31573 ft 561 kts 156°
2026-05-08 09:03 62.03395 -20.81069 31909 ft 558 kts 156°
2026-05-08 09:03 61.99800 -20.78152 32241 ft 555 kts 156°
2026-05-08 09:03 61.96214 -20.75248 32528 ft 553 kts 156°
2026-05-08 09:03 61.92645 -20.72366 32792 ft 551 kts 156°
2026-05-08 09:04 61.89122 -20.69529 33187 ft 545 kts 156°
2026-05-08 09:04 61.85600 -20.66698 33368 ft 545 kts 156°
2026-05-08 09:04 61.82061 -20.63864 33642 ft 542 kts 156°
2026-05-08 09:04 61.78554 -20.61060 33906 ft 539 kts 156°
2026-05-08 09:05 61.75073 -20.58284 34195 ft 535 kts 157°
2026-05-08 09:05 61.71625 -20.55542 34494 ft 531 kts 156°
2026-05-08 09:05 61.68224 -20.52841 34762 ft 528 kts 157°
2026-05-08 09:05 61.64793 -20.50125 35021 ft 525 kts 157°
2026-05-08 09:06 61.61414 -20.47456 35223 ft 524 kts 157°
2026-05-08 09:06 61.58022 -20.44782 35476 ft 522 kts 157°
2026-05-08 09:06 61.54653 -20.42134 35711 ft 519 kts 157°
2026-05-08 09:06 61.51300 -20.39502 35935 ft 516 kts 158°
2026-05-08 09:07 61.47932 -20.36867 36138 ft 515 kts 157°
2026-05-08 09:07 61.44628 -20.34288 36280 ft 515 kts 159°
2026-05-08 09:07 61.41293 -20.31691 36431 ft 514 kts 158°
2026-05-08 09:07 61.37942 -20.29086 36641 ft 512 kts 159°
2026-05-08 09:08 61.34629 -20.26519 36762 ft 512 kts 158°
2026-05-08 09:08 61.31332 -20.23967 36970 ft 509 kts 158°
2026-05-08 09:08 61.28010 -20.21402 37107 ft 508 kts 158°
2026-05-08 09:08 61.24716 -20.18864 37205 ft 506 kts 159°
2026-05-08 09:09 61.18172 -20.13841 37238 ft 503 kts 159°
2026-05-08 09:09 61.11626 -20.08837 37231 ft 506 kts 159°
2026-05-08 09:10 61.05043 -20.03831 37232 ft 506 kts 159°
2026-05-08 09:10 60.98334 -20.00067 37254 ft 504 kts 173°
2026-05-08 09:11 60.91387 -19.98452 37240 ft 504 kts 174°
2026-05-08 09:11 60.84429 -19.96990 37221 ft 506 kts 174°
2026-05-08 09:12 60.77454 -19.95595 37215 ft 506 kts 174°
2026-05-08 09:12 60.70492 -19.94228 37217 ft 504 kts 174°
2026-05-08 09:13 60.63558 -19.92881 37223 ft 504 kts 175°
2026-05-08 09:13 60.56604 -19.91541 37228 ft 505 kts 175°
2026-05-08 09:14 60.49643 -19.90204 37225 ft 507 kts 175°
2026-05-08 09:14 60.42664 -19.88870 37229 ft 506 kts 174°
2026-05-08 09:15 60.35699 -19.87544 37228 ft 504 kts 174°
2026-05-08 09:15 60.28739 -19.86225 37229 ft 504 kts 174°
2026-05-08 09:16 60.21784 -19.84913 37228 ft 505 kts 174°
2026-05-08 09:16 60.14813 -19.83603 37228 ft 505 kts 175°
2026-05-08 09:17 60.07886 -19.82308 37244 ft 506 kts 174°
2026-05-08 09:17 60.00926 -19.81010 37239 ft 505 kts 175°
2026-05-08 09:18 59.93933 -19.79714 37232 ft 504 kts 175°
2026-05-08 09:18 59.86998 -19.78433 37238 ft 504 kts 174°
2026-05-08 09:19 59.80031 -19.77151 37241 ft 506 kts 174°
2026-05-08 09:19 59.73090 -19.75879 37242 ft 506 kts 174°
2026-05-08 09:20 59.66119 -19.74607 37242 ft 503 kts 175°
2026-05-08 09:20 59.59196 -19.73351 37253 ft 505 kts 174°
2026-05-08 09:21 59.52211 -19.72086 37247 ft 504 kts 175°
2026-05-08 09:23 59.27926 -19.67733 37251 ft 503 kts 174°
2026-05-08 09:23 59.21006 -19.66504 37251 ft 503 kts 175°
2026-05-08 09:24 59.14089 -19.65281 37251 ft 502 kts 174°
2026-05-08 09:24 59.07137 -19.64056 37249 ft 502 kts 175°
2026-05-08 09:25 59.00217 -19.62843 37253 ft 502 kts 175°
2026-05-08 09:25 58.93281 -19.61631 37258 ft 503 kts 175°
2026-05-08 09:26 58.86371 -19.60428 37246 ft 502 kts 174°
2026-05-08 09:26 58.79449 -19.59228 37249 ft 501 kts 174°
2026-05-08 09:27 58.72546 -19.58036 37249 ft 502 kts 174°
2026-05-08 09:27 58.65636 -19.56848 37247 ft 500 kts 175°
2026-05-08 09:28 58.58717 -19.55663 37251 ft 501 kts 174°
2026-05-08 09:28 58.51826 -19.54488 37250 ft 500 kts 174°
2026-05-08 09:29 58.44918 -19.53314 37253 ft 499 kts 174°
2026-05-08 09:29 58.38015 -19.52145 37255 ft 501 kts 174°
2026-05-08 09:30 58.31094 -19.50978 37257 ft 500 kts 175°
2026-05-08 09:30 58.24213 -19.49824 37254 ft 500 kts 175°
2026-05-08 09:31 58.17300 -19.48667 37256 ft 499 kts 175°
2026-05-08 09:31 58.10424 -19.47521 37256 ft 499 kts 175°
2026-05-08 09:32 58.03551 -19.46381 37249 ft 499 kts 175°
2026-05-08 09:32 57.96643 -19.45238 37247 ft 499 kts 174°
2026-05-08 09:33 57.89789 -19.44109 37248 ft 498 kts 174°
2026-05-08 09:33 57.82892 -19.42977 37242 ft 498 kts 175°
2026-05-08 09:34 57.76013 -19.41853 37239 ft 498 kts 175°
2026-05-08 09:34 57.69163 -19.40738 37243 ft 496 kts 175°
2026-05-08 09:35 57.62331 -19.39630 37245 ft 497 kts 175°
2026-05-08 09:35 57.55473 -19.38522 37243 ft 496 kts 175°
2026-05-08 09:36 57.48608 -19.37417 37246 ft 495 kts 174°
2026-05-08 09:36 57.41781 -19.36321 37254 ft 496 kts 174°
2026-05-08 09:37 57.34970 -19.35233 37256 ft 495 kts 174°
2026-05-08 09:37 57.28147 -19.34146 37259 ft 494 kts 175°
2026-05-08 09:38 57.21291 -19.33059 37259 ft 494 kts 175°
2026-05-08 09:38 57.14510 -19.31988 37258 ft 494 kts 175°
2026-05-08 09:39 57.07665 -19.30910 37260 ft 494 kts 175°
2026-05-08 09:39 57.00835 -19.29840 37258 ft 494 kts 175°
2026-05-08 09:40 56.94064 -19.28782 37261 ft 492 kts 175°
2026-05-08 09:40 56.87262 -19.27722 37254 ft 492 kts 175°
2026-05-08 09:41 56.80465 -19.26668 37252 ft 493 kts 175°
2026-05-08 09:41 56.73633 -19.25612 37252 ft 492 kts 175°
2026-05-08 09:42 56.66853 -19.24567 37249 ft 491 kts 175°
2026-05-08 09:42 56.60096 -19.23531 37251 ft 492 kts 175°
2026-05-08 09:43 56.53329 -19.22496 37252 ft 491 kts 175°
2026-05-08 09:43 56.46512 -19.21457 37252 ft 491 kts 175°
2026-05-08 09:44 56.39778 -19.20435 37247 ft 490 kts 175°
2026-05-08 09:44 56.33020 -19.19413 37249 ft 489 kts 175°
2026-05-08 09:45 56.26282 -19.18397 37244 ft 489 kts 175°
2026-05-08 09:45 56.19521 -19.17382 37250 ft 489 kts 175°
2026-05-08 09:46 56.12769 -19.16371 37245 ft 489 kts 175°
2026-05-08 09:46 56.06043 -19.15368 37242 ft 488 kts 175°
2026-05-08 09:47 55.99286 -19.14364 37240 ft 488 kts 175°
2026-05-08 09:47 55.92548 -19.13366 37241 ft 487 kts 175°
2026-05-08 09:48 55.85834 -19.12375 37232 ft 487 kts 175°
2026-05-08 09:48 55.79138 -19.11390 37230 ft 485 kts 175°
2026-05-08 09:49 55.72418 -19.10405 37231 ft 486 kts 176°
2026-05-08 09:49 55.65681 -19.09421 37230 ft 486 kts 176°
2026-05-08 09:50 55.58985 -19.08446 37227 ft 484 kts 176°
2026-05-08 09:50 55.52323 -19.07480 37227 ft 484 kts 176°
2026-05-08 09:51 55.45652 -19.06516 37227 ft 484 kts 176°
2026-05-08 09:51 55.38946 -19.05549 37224 ft 483 kts 176°
2026-05-08 09:52 55.32271 -19.04591 37222 ft 483 kts 176°
2026-05-08 09:52 55.25625 -19.03639 37221 ft 483 kts 176°
2026-05-08 09:53 55.18974 -19.02691 37219 ft 481 kts 176°
2026-05-08 09:53 55.12320 -19.01745 37218 ft 481 kts 176°
2026-05-08 09:54 55.05676 -19.00803 37216 ft 481 kts 176°
2026-05-08 09:54 54.99082 -18.99823 37211 ft 480 kts 174°
2026-05-08 09:55 54.92636 -18.98361 37213 ft 481 kts 173°
2026-05-08 09:55 54.86055 -18.96886 37212 ft 480 kts 173°
2026-05-08 09:56 54.79475 -18.95418 37212 ft 479 kts 173°
2026-05-08 09:56 54.72869 -18.93951 37214 ft 480 kts 173°
2026-05-08 09:57 54.62976 -18.91764 37203 ft 478 kts 173°
2026-05-08 09:57 54.56408 -18.90318 37205 ft 478 kts 173°
2026-05-08 09:58 54.49869 -18.88883 37202 ft 477 kts 173°
2026-05-08 09:58 54.43288 -18.87444 37204 ft 477 kts 173°
2026-05-08 09:59 54.36749 -18.86018 37204 ft 477 kts 174°
2026-05-08 09:59 54.30167 -18.84588 37203 ft 477 kts 174°
2026-05-08 10:00 54.23617 -18.83168 37198 ft 477 kts 174°
2026-05-08 10:00 54.17077 -18.81757 37199 ft 476 kts 174°
2026-05-08 10:01 54.10573 -18.80357 37200 ft 474 kts 174°
2026-05-08 10:01 54.04031 -18.78953 37197 ft 474 kts 174°
2026-05-08 10:02 53.97501 -18.77556 37200 ft 474 kts 174°
2026-05-08 10:02 53.91019 -18.76174 37194 ft 474 kts 174°
2026-05-08 10:03 53.84476 -18.74784 37189 ft 475 kts 174°
2026-05-08 10:03 53.77936 -18.73398 37187 ft 473 kts 174°
2026-05-08 10:04 53.71453 -18.72029 37186 ft 473 kts 174°
2026-05-08 10:04 53.64971 -18.70664 37183 ft 472 kts 174°
2026-05-08 10:05 53.58480 -18.69302 37179 ft 472 kts 174°
2026-05-08 10:05 53.51962 -18.67938 37167 ft 472 kts 174°
2026-05-08 10:06 53.45477 -18.66585 37169 ft 471 kts 174°
2026-05-08 10:06 53.39022 -18.65243 37170 ft 472 kts 174°
2026-05-08 10:07 53.32516 -18.63893 37165 ft 470 kts 174°
2026-05-08 10:07 53.26057 -18.62558 37155 ft 469 kts 174°
2026-05-08 10:08 53.19629 -18.61235 37158 ft 470 kts 174°
2026-05-08 10:08 53.13131 -18.59900 37163 ft 470 kts 174°
2026-05-08 10:09 53.06677 -18.58578 37150 ft 469 kts 174°
2026-05-08 10:09 53.00258 -18.57267 37145 ft 469 kts 174°
2026-05-08 10:10 52.93775 -18.55947 37149 ft 469 kts 174°
2026-05-08 10:10 52.87357 -18.54644 37138 ft 467 kts 174°
2026-05-08 10:11 52.80938 -18.53344 37139 ft 466 kts 174°
2026-05-08 10:11 52.74508 -18.52047 37129 ft 466 kts 174°
2026-05-08 10:12 52.68112 -18.50761 37125 ft 466 kts 174°
2026-05-08 10:12 52.61672 -18.49469 37129 ft 466 kts 174°
2026-05-08 10:13 52.55271 -18.48189 37126 ft 465 kts 174°
2026-05-08 10:13 52.48876 -18.46914 37121 ft 464 kts 174°
2026-05-08 10:14 52.42468 -18.45640 37117 ft 465 kts 174°
2026-05-08 10:14 52.36097 -18.44376 37117 ft 463 kts 174°
2026-05-08 10:15 52.29725 -18.43117 37113 ft 464 kts 174°
2026-05-08 10:15 52.23358 -18.41862 37100 ft 462 kts 174°
2026-05-08 10:16 52.17004 -18.40614 37104 ft 463 kts 174°
2026-05-08 10:16 52.10627 -18.39363 37097 ft 461 kts 174°
2026-05-08 10:17 52.04292 -18.38126 37098 ft 462 kts 174°